星链-32409 (STARLINK-32409)

导读

STARLINK-32409是美国SpaceX公司于2024年10月18日发射的星链低轨互联网卫星,属于全球星链星座组网计划的组成部分。星链项目旨在通过近地轨道卫星集群,为全球偏远、无网络覆盖区域提供低延迟、高速宽带互联网服务。该卫星的成功入轨,进一步扩充了星链星座规模,助力SpaceX实现全球泛在互联的组网目标,也推动了低轨卫星互联网产业的发展。

基本信息
目录编号:
61591
目录名称:
STARLINK-32409
国际标识:
2024-187T
轨道中心:
EARTH
卫星名称:
星链-32409
卫星全名:
星链-32409 (STARLINK-32409)
卫星状态:
在轨 (已飞行686 天)
发射日期:
2024-10-18 UTC
国别 :
美国 (US)
星等 :
--
轨道信息
数据来源 国际轨道数据 AOE轨道数据
星历时间 2026-09-04T15:13:25+0800
6小时前
查看轨道信息
2026-09-02T16:00:00+0800
2天前
查看轨道信息
半长轴 6840.845km 6840.724km
偏心率 0.0001115 0.0001038
轨道倾角 53.160° 53.160°
近地点辐角 108.636° 86.310°
升交点赤经 297.377° 306.575°
平近点角 251.476° 198.846°
近地点 461.945km 461.876km
远地点 463.471km 463.298km
周期 93.848分钟 93.845分钟
每日圈数 15.343985 15.344392
详细信息
固有亮度:
5
最大亮度:
2.5
卫星平台:
Starlink V1.0
覆盖范围:
全球
运营商:
太空探索技术公司
运营商所在国:
美国
制造商(研发单位):
太空探索技术公司
制造商所在国:
美国
使用方式:
暂无
卫星简介
Starlink 计划是 SpaceX 推出的全球卫星互联网项目,通过发射低轨道卫星,为全球尤其是偏远地区提供高速、低延迟的互联网服务。自 2019 年起,Starlink 已部署数千颗卫星,旨在缩小全球数字鸿沟,推动互联网普及。该项目还为军事、航空等行业提供通信支持,带来广泛经济效益。
2D轨道图
3D轨道图
轨道高度分析图
轨道倾角分析图
轨道综合分析图
查看轨道综合分析图
交会数据列表
事件ID 空间交会对象 最接近时刻(TCA) 交会距离 交会风险概率(CRP) 交会风险指数(CRI) 操作
CDM_260906-173306-159106-851821
2026-09-06T
17:33:59+0000
0.228 km
中距离
5.56044E-4 高风险 0.9
CDM_260906-072406-159106-851821
2026-09-06T
07:24:20+0000
0.493 km
远距离
1.435013E-4 高风险 0.78
CDM_260831-013306-159106-552421
2026-08-31T
01:33:57+0000
2.139 km
极远距离
1.372465E-6 低风险 0.38
CDM_260903-044305-396606-159121
2026-09-03T
04:43:07+0000
2.949 km
极远距离
1.215479E-6 低风险 0.37
CDM_260906-055006-159106-851821
2026-09-06T
05:50:33+0000
2.768 km
极远距离
1.021941E-6 低风险 0.35
CDM_260906-085806-159106-851821
2026-09-06T
08:58:08+0000
2.779 km
极远距离
1.016366E-6 低风险 0.35
CDM_260905-141005-209006-159121
2026-09-05T
14:10:48+0000
2.771 km
极远距离
8.978227E-7 极低风险 0.34